Tracking 29892 objects as of 21-Nov-2024
HD Live streaming from Space Station
objects crossing your sky now

PEGASUS DEB

Track PEGASUS DEB now!
10-day predictions


NORAD ID: 39926
Int'l Code: 1994-029AFZ
Perigee: 605.1 km
Apogee: 1,044.8 km
Inclination: 81.8 °
Period: 101.2 minutes
Semi major axis: 7195 km
RCS: 0.0112 m2 (small)
Launch date: May 19, 1994
Source: United States (US)
Launch site: AIR FORCE WESTERN TEST RANGE (AFWTR)

Note: This is SATELLITE DEBRIS
Your satellite tracking list
Your tracking list is empty




NASA's NSSDC Master Catalog

Two Line Element Set (TLE):
1 39926U 94029AFZ 24319.58404127  .00002858  00000-0  79188-3 0  9992
2 39926  81.8428  80.0353 0305535  76.7319 297.4278 14.22227832 84065
Source of the keplerian elements: AFSPC